Dalhart, TX

2:41 PM CST on January 18, 2017 (GMT -0600)
Dalhart Municipal

Weather History for KDHT - November, 2012

Change the Weather History Date:

Tuesday, November 27, 2012

  Actual Average Record
Temperature  
Mean Temperature 39 °F 39 °F  
Max Temperature 58 °F 54 °F 80 °F (1949)
Min Temperature 20 °F 23 °F -4 °F (1976)
Degree Days  
Heating Degree Days 26 26  
Month to date heating degree days 435 552  
Since 1 July heating degree days 755 912  
Cooling Degree Days 0 0  
Month to date cooling degree days 0 0  
Year to date cooling degree days 1648 1138  
Moisture  
Dew Point 20 °F    
Average Humidity 57    
Maximum Humidity 88    
Minimum Humidity 25    
Precipitation  
Precipitation 0.00 in 0.01 in 0.25 in (2005)
Month to date precipitation 0.00 0.54  
Year to date precipitation 6.35 17.01  
Snow  
Snow 0.00 in 0.10 in 2.60 in (1982)
Month to date snowfall 0.0 1.1  
Since 1 July snowfall 0.0 1.7  
Since 1 September snowfall 0.0 1.7  
Snow Depth 0.00 in    
Sea Level Pressure  
Sea Level Pressure 30.31 in    
Wind  
Wind Speed 11 mph (SSW)    
Max Wind Speed 23 mph    
Max Gust Speed 29 mph    
Visibility 9 miles    
Events      
T = Trace of Precipitation, MM = Missing Value Source: NWS Daily Summary

Daily Weather History Graph

Daily Weather History Graph

Search for Another Location

Airport or City:

Trip Planner

Search our weather history database for the weather conditions in past years. The results will help you decide how hot, cold, wet, or windy it might be!

Date:

Astronomy

Nov. 27, 2012 Rise Set
Actual Time 7:39 AM CST 5:36 PM CST
Civil Twilight 7:11 AM CST 6:04 PM CST
Nautical Twilight 6:39 AM CST 6:36 PM CST
Astronomical Twilight 6:08 AM CST 7:07 PM CST
Moon 5:09 PM CST (11/27) 6:46 AM CST (11/27)
Length of Visible Light 10h 53m
Length of Day
9h 57m
Waxing Gibbous, 99% of the Moon is Illuminated
Nov 27
Waxing Gibbous
Nov 28
Full
Dec 6
Last Quarter
Dec 13
New
Dec 19
First Quarter

Hourly Weather History & Observations

Time (CST) Temp. Windchill Dew Point Humidity Pressure Visibility Wind Dir Wind Speed Gust Speed Precip Events Conditions
12:44 AM 26.6 °F - 19.4 °F 74% 30.43 in 10.0 mi Calm Calm - N/A   Scattered Clouds
12:53 AM 26.1 °F - 18.0 °F 71% 30.45 in 9.0 mi Calm Calm - N/A   Partly Cloudy
1:12 AM 26.6 °F 21.2 °F 19.4 °F 74% 30.41 in 9.0 mi South 4.6 mph - N/A   Mostly Cloudy
1:53 AM 25.0 °F 17.1 °F 17.1 °F 72% 30.42 in 9.0 mi South 6.9 mph - N/A   Mostly Cloudy
2:06 AM 24.8 °F 17.9 °F 17.6 °F 74% 30.38 in 9.0 mi South 5.8 mph - N/A   Scattered Clouds
2:31 AM 23.0 °F 14.7 °F 17.6 °F 80% 30.39 in 8.0 mi SSW 6.9 mph - N/A   Mostly Cloudy
2:53 AM 26.1 °F 20.5 °F 18.0 °F 71% 30.41 in 8.0 mi South 4.6 mph - N/A   Overcast
3:53 AM 24.1 °F 15.2 °F 17.1 °F 75% 30.41 in 8.0 mi SSW 8.1 mph - N/A   Mostly Cloudy
4:05 AM 23.0 °F 13.9 °F 17.6 °F 80% 30.37 in 8.0 mi SSW 8.1 mph - N/A   Scattered Clouds
4:53 AM 21.9 °F 11.7 °F 17.1 °F 82% 30.38 in 7.0 mi South 9.2 mph - N/A   Clear
5:53 AM 21.0 °F 10.6 °F 17.1 °F 85% 30.39 in 7.0 mi SSW 9.2 mph - N/A   Clear
6:53 AM 21.9 °F 11.0 °F 17.1 °F 82% 30.39 in 7.0 mi SW 10.4 mph - N/A   Clear
7:53 AM 23.0 °F 11.1 °F 19.0 °F 85% 30.38 in 5.0 mi SSW 12.7 mph - N/A   Clear
8:53 AM 28.9 °F 16.9 °F 21.0 °F 72% 30.36 in 7.0 mi SW 17.3 mph - N/A   Clear
9:53 AM 37.0 °F 26.7 °F 25.0 °F 62% 30.33 in 9.0 mi SW 19.6 mph - N/A   Clear
10:53 AM 43.0 °F 33.8 °F 27.0 °F 53% 30.32 in 10.0 mi SW 23.0 mph 28.8 mph N/A   Clear
11:53 AM 46.9 °F - 27.0 °F 46% 30.27 in 10.0 mi SW 16.1 mph 24.2 mph N/A   Clear
12:53 PM 51.1 °F - 26.1 °F 38% 30.23 in 10.0 mi SW 15.0 mph 23.0 mph N/A   Clear
1:53 PM 55.4 °F - 24.8 °F 31% 30.20 in 10.0 mi SSW 13.8 mph - N/A   Clear
2:53 PM 57.0 °F - 24.1 °F 28% 30.17 in 10.0 mi SSW 13.8 mph - N/A   Clear
3:53 PM 57.9 °F - 23.0 °F 26% 30.17 in 10.0 mi SSW 13.8 mph - N/A   Clear
4:53 PM 55.0 °F - 23.0 °F 29% 30.18 in 10.0 mi SSW 10.4 mph - N/A   Clear
5:53 PM 43.0 °F 37.2 °F 19.9 °F 40% 30.21 in 10.0 mi South 10.4 mph - N/A   Clear
6:53 PM 37.0 °F - 19.0 °F 48% 30.23 in 10.0 mi North - - N/A   Clear
7:53 PM 37.0 °F 31.6 °F 21.0 °F 52% 30.23 in 10.0 mi South 6.9 mph - N/A   Clear
8:53 PM 37.0 °F 31.0 °F 19.0 °F 48% 30.22 in 10.0 mi South 8.1 mph - N/A   Clear
9:53 PM 32.0 °F 24.2 °F 18.0 °F 56% 30.21 in 10.0 mi South 9.2 mph - N/A   Clear
10:53 PM 30.9 °F 23.5 °F 19.0 °F 61% 30.21 in 10.0 mi West 8.1 mph - N/A   Clear
11:53 PM 32.0 °F - 19.9 °F 61% 30.19 in 10.0 mi Calm Calm - N/A   Clear